EJA337 KSJC-KSDL

Flight info

Callsign EJA337
Flight time 2h 31m
Altitude 45000
Route SPTNS1 JFREE LOSHN PMD DECAS J65 BLH ARLIN4
Aircraft E55P/M-SBDGRW/LB2

Departure

Time 2026-04-28 21:55
Airport Norman Y. Mineta San Jose International Airport (KSJC)

Arrival

Time 2026-04-29 00:27
Airport Scottsdale Airport (KSDL)
Time Latitude Longitude Altitude Speed Heading
2026-04-28 21:00 37.35768 -121.92921 54 ft 0 kts 228°
2026-04-28 21:49 37.35766 -121.92924 54 ft 2 kts 226°
2026-04-28 21:49 37.35749 -121.92924 55 ft 2 kts 124°
2026-04-28 21:50 37.35758 -121.92896 55 ft 7 kts 57°
2026-04-28 21:50 37.35731 -121.92840 55 ft 9 kts 139°
2026-04-28 21:50 37.35671 -121.92775 56 ft 13 kts 139°
2026-04-28 21:50 37.35600 -121.92696 56 ft 14 kts 139°
2026-04-28 21:51 37.35525 -121.92615 56 ft 14 kts 139°
2026-04-28 21:51 37.35449 -121.92529 58 ft 14 kts 130°
2026-04-28 21:51 37.35438 -121.92416 58 ft 14 kts 52°
2026-04-28 21:51 37.35467 -121.92307 58 ft 14 kts 135°
2026-04-28 21:52 37.35392 -121.92225 59 ft 14 kts 138°
2026-04-28 21:52 37.35319 -121.92145 60 ft 13 kts 139°
2026-04-28 21:52 37.35246 -121.92066 60 ft 13 kts 137°
2026-04-28 21:52 37.35208 -121.92001 60 ft 5 kts 95°
2026-04-28 21:53 37.35208 -121.91991 61 ft 0 kts 81°
2026-04-28 21:54 37.35210 -121.91981 61 ft 3 kts 74°
2026-04-28 21:54 37.35239 -121.91932 62 ft 8 kts 46°
2026-04-28 21:54 37.35296 -121.91923 61 ft 10 kts 319°
2026-04-28 21:55 37.35460 -121.92102 58 ft 69 kts 319°
2026-04-28 21:55 37.36024 -121.92719 132 ft 131 kts 317°
2026-04-28 21:55 37.36755 -121.93506 686 ft 154 kts 321°
2026-04-28 21:55 37.37679 -121.94394 1247 ft 180 kts 319°
2026-04-28 21:56 37.38628 -121.95512 2032 ft 195 kts 317°
2026-04-28 21:56 37.39615 -121.96640 2950 ft 200 kts 321°
2026-04-28 21:56 37.40863 -121.97356 3717 ft 206 kts 357°
2026-04-28 21:56 37.42179 -121.96880 4346 ft 198 kts 38°
2026-04-28 21:57 37.42927 -121.95442 4670 ft 205 kts 76°
2026-04-28 21:57 37.42763 -121.93665 4957 ft 210 kts 110°
2026-04-28 21:57 37.41995 -121.92111 4999 ft 211 kts 124°
2026-04-28 21:57 37.41089 -121.90645 5010 ft 212 kts 127°
2026-04-28 21:58 37.40148 -121.89227 4992 ft 213 kts 128°
2026-04-28 21:58 37.39161 -121.87843 4999 ft 212 kts 129°
2026-04-28 21:58 37.38180 -121.86446 5001 ft 214 kts 129°
2026-04-28 21:58 37.37177 -121.84996 5004 ft 226 kts 129°
2026-04-28 21:59 37.36105 -121.83463 4999 ft 238 kts 130°
2026-04-28 21:59 37.34993 -121.81893 5007 ft 247 kts 129°
2026-04-28 21:59 37.33845 -121.80243 5022 ft 254 kts 129°
2026-04-28 22:00 37.31286 -121.77010 5359 ft 270 kts 136°
2026-04-28 22:00 37.29888 -121.75420 6095 ft 273 kts 135°
2026-04-28 22:00 37.28469 -121.73811 7025 ft 278 kts 135°
2026-04-28 22:00 37.27037 -121.72182 7893 ft 285 kts 136°
2026-04-28 22:01 37.25580 -121.70529 8848 ft 289 kts 136°
2026-04-28 22:01 37.24091 -121.68845 9788 ft 293 kts 136°
2026-04-28 22:01 37.22570 -121.67124 10681 ft 297 kts 136°
2026-04-28 22:01 37.21026 -121.65377 11546 ft 303 kts 136°
2026-04-28 22:02 37.19449 -121.63594 12366 ft 309 kts 136°
2026-04-28 22:02 37.17847 -121.61784 13217 ft 314 kts 135°
2026-04-28 22:02 37.16226 -121.59949 14014 ft 320 kts 136°
2026-04-28 22:02 37.14558 -121.58064 14795 ft 326 kts 136°
2026-04-28 22:03 37.12873 -121.56160 15465 ft 334 kts 136°
2026-04-28 22:03 37.11126 -121.54194 16181 ft 341 kts 136°
2026-04-28 22:03 37.09362 -121.52200 16907 ft 346 kts 136°
2026-04-28 22:03 37.07555 -121.50166 17630 ft 352 kts 136°
2026-04-28 22:04 37.05788 -121.48062 18335 ft 355 kts 131°
2026-04-28 22:04 37.04125 -121.45741 19051 ft 359 kts 131°
2026-04-28 22:04 37.02450 -121.43449 19766 ft 363 kts 131°
2026-04-28 22:04 37.00746 -121.41116 20445 ft 366 kts 131°
2026-04-28 22:05 36.99020 -121.38753 21114 ft 370 kts 131°
2026-04-28 22:05 36.97280 -121.36374 21820 ft 372 kts 131°
2026-04-28 22:05 36.95540 -121.33998 22448 ft 377 kts 132°
2026-04-28 22:05 36.93767 -121.31581 23078 ft 380 kts 131°
2026-04-28 22:06 36.91972 -121.29128 23726 ft 382 kts 132°
2026-04-28 22:06 36.90181 -121.26687 24291 ft 386 kts 131°
2026-04-28 22:06 36.88367 -121.24219 24795 ft 391 kts 131°
2026-04-28 22:06 36.86521 -121.21704 25376 ft 393 kts 131°
2026-04-28 22:07 36.84665 -121.19175 26031 ft 393 kts 131°
2026-04-28 22:07 36.82830 -121.16678 26674 ft 392 kts 131°
2026-04-28 22:07 36.81005 -121.14204 27361 ft 389 kts 131°
2026-04-28 22:07 36.79192 -121.11739 28014 ft 388 kts 131°
2026-04-28 22:08 36.77364 -121.09264 28656 ft 386 kts 131°
2026-04-28 22:08 36.75549 -121.06809 29270 ft 385 kts 130°
2026-04-28 22:08 36.73735 -121.04348 29854 ft 385 kts 130°
2026-04-28 22:08 36.72236 -121.02321 30323 ft 385 kts 130°
2026-04-28 22:38 36.71751 -121.01662 30473 ft 385 kts 130°
2026-04-28 22:38 36.69960 -120.99231 31042 ft 383 kts 131°
2026-04-28 22:38 36.68164 -120.96799 31556 ft 383 kts 131°
2026-04-28 22:38 36.66367 -120.94370 32039 ft 383 kts 133°
2026-04-28 22:39 36.64479 -120.92039 32503 ft 383 kts 138°
2026-04-28 22:39 36.62521 -120.89768 33075 ft 380 kts 138°
2026-04-28 22:39 36.60613 -120.87547 33611 ft 378 kts 139°
2026-04-28 22:39 36.58696 -120.85311 34115 ft 377 kts 139°
2026-04-28 22:40 36.56798 -120.83099 34535 ft 376 kts 139°
2026-04-28 22:40 36.54871 -120.80849 34950 ft 376 kts 139°
2026-04-28 22:40 36.52974 -120.78634 35378 ft 374 kts 139°
2026-04-28 22:40 36.51084 -120.76424 35772 ft 374 kts 140°
2026-04-28 22:41 36.49195 -120.74219 36202 ft 375 kts 140°
2026-04-28 22:41 36.47261 -120.71972 36683 ft 374 kts 141°
2026-04-28 22:41 36.45359 -120.69759 37172 ft 373 kts 141°
2026-04-28 22:41 36.43479 -120.67573 37662 ft 372 kts 141°
2026-04-28 22:42 36.41583 -120.65369 38105 ft 372 kts 142°
2026-04-28 22:42 36.39712 -120.63200 38569 ft 372 kts 142°
2026-04-28 22:42 36.37823 -120.61006 38908 ft 374 kts 142°
2026-04-28 22:42 36.35923 -120.58801 39323 ft 373 kts 142°
2026-04-28 22:43 36.34019 -120.56597 39756 ft 371 kts 143°
2026-04-28 22:43 36.32148 -120.54429 40212 ft 369 kts 143°
2026-04-28 22:43 36.30271 -120.52261 40572 ft 369 kts 143°
2026-04-28 22:43 36.28405 -120.50100 40937 ft 369 kts 143°
2026-04-28 22:44 36.26527 -120.47935 41347 ft 366 kts 143°
2026-04-28 22:44 36.24677 -120.45798 41706 ft 365 kts 144°
2026-04-28 22:44 36.22839 -120.43684 41994 ft 366 kts 143°
2026-04-28 22:44 36.20968 -120.41525 42397 ft 363 kts 143°
2026-04-28 22:45 36.19148 -120.39423 42789 ft 361 kts 143°
2026-04-28 22:45 36.17312 -120.37314 43104 ft 361 kts 143°
2026-04-28 22:45 36.15475 -120.35197 43425 ft 360 kts 144°
2026-04-28 22:45 36.13629 -120.33070 43688 ft 360 kts 144°
2026-04-28 22:46 36.11789 -120.30963 43948 ft 360 kts 144°
2026-04-28 22:46 36.09979 -120.28881 44212 ft 360 kts 144°
2026-04-28 22:46 36.08150 -120.26782 44518 ft 358 kts 144°
2026-04-28 22:46 36.06329 -120.24692 44809 ft 357 kts 144°
2026-04-28 22:47 36.04496 -120.22593 45021 ft 358 kts 144°
2026-04-28 22:47 36.00796 -120.18359 45093 ft 370 kts 143°
2026-04-28 22:48 35.96975 -120.13989 45094 ft 383 kts 143°
2026-04-28 22:48 35.93001 -120.09448 45085 ft 397 kts 143°
2026-04-28 22:49 35.88875 -120.04746 45091 ft 409 kts 143°
2026-04-28 22:49 35.84665 -119.99876 45097 ft 426 kts 137°
2026-04-28 22:50 35.81000 -119.93913 45105 ft 442 kts 133°
2026-04-28 22:50 35.77274 -119.87822 45082 ft 449 kts 132°
2026-04-28 22:51 35.73499 -119.81662 45075 ft 449 kts 133°
2026-04-28 22:51 35.69747 -119.75564 45076 ft 451 kts 132°
2026-04-28 22:52 35.65949 -119.69383 45064 ft 451 kts 133°
2026-04-28 22:52 35.62169 -119.63261 45048 ft 451 kts 133°
2026-04-28 22:53 35.58354 -119.57095 45045 ft 451 kts 133°
2026-04-28 22:53 35.54581 -119.50990 45064 ft 452 kts 133°
2026-04-28 22:54 35.50782 -119.44861 45066 ft 454 kts 133°
2026-04-28 22:54 35.46944 -119.38674 45068 ft 455 kts 133°
2026-04-28 22:55 35.43139 -119.32567 45069 ft 454 kts 134°
2026-04-28 22:55 35.39303 -119.26399 45078 ft 453 kts 135°
2026-04-28 22:56 35.35502 -119.20319 45066 ft 452 kts 134°
2026-04-28 22:56 35.32349 -119.15282 45070 ft 452 kts 134°
2026-04-28 23:29 35.28661 -119.09389 45070 ft 451 kts 135°
2026-04-28 23:30 35.24828 -119.03284 45071 ft 451 kts 135°
2026-04-28 23:30 35.21043 -118.97257 45076 ft 451 kts 135°
2026-04-28 23:31 35.17218 -118.91187 45069 ft 452 kts 134°
2026-04-28 23:31 35.13396 -118.85126 45069 ft 452 kts 135°
2026-04-28 23:32 35.09542 -118.79020 45063 ft 452 kts 135°
2026-04-28 23:32 35.05707 -118.72960 45068 ft 452 kts 135°
2026-04-28 23:33 35.01841 -118.66874 45070 ft 452 kts 135°
2026-04-28 23:33 34.98000 -118.60819 45085 ft 452 kts 135°
2026-04-28 23:34 34.94141 -118.54750 45107 ft 453 kts 135°
2026-04-28 23:34 34.90287 -118.48703 45105 ft 454 kts 136°
2026-04-28 23:35 34.86417 -118.42643 45120 ft 456 kts 135°
2026-04-28 23:35 34.82512 -118.36533 45081 ft 459 kts 135°
2026-04-28 23:36 34.78579 -118.30393 45052 ft 460 kts 136°
2026-04-28 23:36 34.74648 -118.24273 45048 ft 460 kts 136°
2026-04-28 23:37 34.70710 -118.18141 45048 ft 461 kts 136°
2026-04-28 23:37 34.66778 -118.12035 45039 ft 461 kts 136°
2026-04-28 23:38 34.62947 -118.05741 45025 ft 474 kts 123°
2026-04-28 23:38 34.60692 -117.98180 45056 ft 481 kts 116°
2026-04-28 23:39 34.58428 -117.90540 45045 ft 482 kts 116°
2026-04-28 23:39 34.56147 -117.82895 45045 ft 482 kts 116°
2026-04-28 23:40 34.53870 -117.75284 45069 ft 482 kts 116°
2026-04-28 23:40 34.51575 -117.67625 45088 ft 484 kts 116°
2026-04-28 23:41 34.49262 -117.59924 45079 ft 486 kts 116°
2026-04-28 23:41 34.46955 -117.52285 45075 ft 486 kts 117°
2026-04-28 23:42 34.44625 -117.44589 45075 ft 487 kts 116°
2026-04-28 23:42 34.42300 -117.36904 45084 ft 488 kts 116°
2026-04-28 23:43 34.39972 -117.29243 45054 ft 488 kts 117°
2026-04-28 23:43 34.37623 -117.21530 45068 ft 486 kts 117°
2026-04-28 23:44 34.35299 -117.13926 45080 ft 486 kts 117°
2026-04-28 23:44 34.32944 -117.06246 45067 ft 486 kts 118°
2026-04-28 23:45 34.30590 -116.98583 45062 ft 488 kts 118°
2026-04-28 23:45 34.28233 -116.90913 45066 ft 489 kts 117°
2026-04-28 23:46 34.25872 -116.83266 45096 ft 488 kts 118°
2026-04-28 23:46 34.23490 -116.75572 45123 ft 489 kts 118°
2026-04-28 23:47 34.21124 -116.67956 45105 ft 489 kts 118°
2026-04-28 23:47 34.18736 -116.60275 45106 ft 489 kts 118°
2026-04-28 23:48 34.16342 -116.52599 45085 ft 490 kts 117°
2026-04-28 23:48 34.13950 -116.44938 45069 ft 491 kts 118°
2026-04-28 23:49 34.11521 -116.37185 45060 ft 491 kts 118°
2026-04-28 23:49 34.09123 -116.29562 45060 ft 489 kts 118°
2026-04-28 23:50 34.06717 -116.21920 45078 ft 487 kts 119°
2026-04-28 23:50 34.04305 -116.14278 45077 ft 486 kts 119°
2026-04-28 23:51 34.01906 -116.06716 45097 ft 484 kts 120°
2026-04-28 23:51 33.99518 -115.99196 45096 ft 484 kts 119°
2026-04-28 23:52 33.97111 -115.91623 45084 ft 483 kts 119°
2026-04-28 23:52 33.94712 -115.84103 45057 ft 482 kts 120°
2026-04-28 23:53 33.92321 -115.76627 45058 ft 482 kts 120°
2026-04-28 23:53 33.89913 -115.69119 45042 ft 482 kts 120°
2026-04-28 23:54 33.87490 -115.61584 45037 ft 484 kts 120°
2026-04-28 23:54 33.85064 -115.54032 45016 ft 486 kts 120°
2026-04-28 23:55 33.82620 -115.46482 44998 ft 488 kts 120°
2026-04-28 23:55 33.80176 -115.38923 44979 ft 486 kts 120°
2026-04-28 23:56 33.77729 -115.31389 44965 ft 482 kts 121°
2026-04-28 23:56 33.76521 -115.27665 44848 ft 477 kts 121°
2026-04-28 23:56 33.75318 -115.23963 44465 ft 475 kts 121°
2026-04-28 23:57 33.74124 -115.20310 43846 ft 478 kts 122°
2026-04-28 23:57 33.72896 -115.16563 43167 ft 481 kts 122°
2026-04-28 23:57 33.71693 -115.12862 42426 ft 482 kts 122°
2026-04-28 23:57 33.70456 -115.09080 41664 ft 484 kts 123°
2026-04-28 23:58 33.69224 -115.05326 40908 ft 485 kts 123°
2026-04-28 23:58 33.68000 -115.01586 40174 ft 488 kts 124°
2026-04-28 23:58 33.66742 -114.97773 39451 ft 491 kts 124°
2026-04-28 23:58 33.65493 -114.93986 38728 ft 493 kts 124°
2026-04-28 23:59 33.64243 -114.90197 38003 ft 495 kts 123°
2026-04-28 23:59 33.62965 -114.86317 37263 ft 497 kts 123°
2026-04-28 23:59 33.61698 -114.82472 36557 ft 499 kts 123°
2026-04-28 23:59 33.60423 -114.78648 35856 ft 500 kts 122°
2026-04-29 00:00 33.59282 -114.74654 35141 ft 513 kts 113°
2026-04-29 00:00 33.58502 -114.70518 34465 ft 513 kts 112°
2026-04-29 00:00 33.57702 -114.66336 33727 ft 516 kts 111°
2026-04-29 00:00 33.56892 -114.62188 33075 ft 518 kts 112°
2026-04-29 00:01 33.56074 -114.57954 32443 ft 518 kts 111°
2026-04-29 00:01 33.55253 -114.53785 31807 ft 520 kts 110°
2026-04-29 00:01 33.54437 -114.49608 31173 ft 521 kts 110°
2026-04-29 00:01 33.53620 -114.45403 30539 ft 521 kts 110°
2026-04-29 00:02 33.52790 -114.41205 29899 ft 519 kts 109°
2026-04-29 00:02 33.51978 -114.37017 29252 ft 518 kts 109°
2026-04-29 00:02 33.51152 -114.32825 28571 ft 515 kts 109°
2026-04-29 00:02 33.50322 -114.28664 27872 ft 512 kts 109°
2026-04-29 00:03 33.49516 -114.24567 27161 ft 509 kts 109°
2026-04-29 00:03 33.48708 -114.20442 26441 ft 505 kts 108°
2026-04-29 00:03 33.47904 -114.16398 25734 ft 500 kts 108°
2026-04-29 00:03 33.47105 -114.12421 25132 ft 493 kts 108°
2026-04-29 00:04 33.46452 -114.08408 24991 ft 495 kts 97°
2026-04-29 00:04 33.46732 -114.04330 25004 ft 497 kts 81°
2026-04-29 00:04 33.47314 -114.00224 24996 ft 494 kts 82°
2026-04-29 00:04 33.47876 -113.96211 24994 ft 493 kts 83°
2026-04-29 00:05 33.48418 -113.92181 24994 ft 491 kts 82°
2026-04-29 00:05 33.48953 -113.88129 24999 ft 490 kts 83°
2026-04-29 00:05 33.49491 -113.84119 24819 ft 493 kts 83°
2026-04-29 00:05 33.50026 -113.80055 24340 ft 497 kts 83°
2026-04-29 00:06 33.50563 -113.75985 23778 ft 494 kts 82°
2026-04-29 00:06 33.51086 -113.71972 23176 ft 490 kts 82°
2026-04-29 00:06 33.51618 -113.67970 22556 ft 485 kts 82°
2026-04-29 00:06 33.52137 -113.64025 21928 ft 475 kts 82°
2026-04-29 00:07 33.52639 -113.60164 21330 ft 465 kts 82°
2026-04-29 00:07 33.53131 -113.56393 20736 ft 456 kts 82°
2026-04-29 00:07 33.53609 -113.52696 20148 ft 450 kts 82°
2026-04-29 00:07 33.54093 -113.48994 19554 ft 444 kts 82°
2026-04-29 00:08 33.54559 -113.45380 18972 ft 440 kts 82°
2026-04-29 00:08 33.55025 -113.41786 18381 ft 436 kts 82°
2026-04-29 00:08 33.55477 -113.38230 17799 ft 432 kts 82°
2026-04-29 00:08 33.55936 -113.34690 17241 ft 427 kts 82°
2026-04-29 00:09 33.56385 -113.31217 16693 ft 421 kts 82°
2026-04-29 00:09 33.56824 -113.27776 16146 ft 418 kts 82°
2026-04-29 00:09 33.57262 -113.24365 15603 ft 415 kts 83°
2026-04-29 00:09 33.57694 -113.20982 15041 ft 412 kts 83°
2026-04-29 00:10 33.58118 -113.17612 14474 ft 408 kts 83°
2026-04-29 00:10 33.58540 -113.14283 13911 ft 404 kts 83°
2026-04-29 00:10 33.58964 -113.10947 13344 ft 400 kts 83°
2026-04-29 00:10 33.59375 -113.07685 12847 ft 393 kts 82°
2026-04-29 00:11 33.59774 -113.04513 12360 ft 388 kts 83°
2026-04-29 00:11 33.60175 -113.01319 11868 ft 383 kts 83°
2026-04-29 00:11 33.60950 -112.95130 11046 ft 373 kts 82°
2026-04-29 00:12 33.61350 -112.92027 10990 ft 376 kts 79°
2026-04-29 00:12 33.62313 -112.89142 11001 ft 380 kts 61°
2026-04-29 00:12 33.63501 -112.86303 10993 ft 383 kts 63°
2026-04-29 00:12 33.64700 -112.83460 10911 ft 381 kts 63°
2026-04-29 00:13 33.65850 -112.80679 10779 ft 362 kts 63°
2026-04-29 00:13 33.66936 -112.78050 10647 ft 343 kts 63°
2026-04-29 00:13 33.67963 -112.75557 10513 ft 326 kts 64°
2026-04-29 00:13 33.68954 -112.73155 10195 ft 318 kts 64°
2026-04-29 00:14 33.69924 -112.70797 9792 ft 313 kts 64°
2026-04-29 00:14 33.70879 -112.68473 9409 ft 309 kts 63°
2026-04-29 00:14 33.71831 -112.66151 9017 ft 306 kts 63°
2026-04-29 00:14 33.72762 -112.63885 8647 ft 303 kts 63°
2026-04-29 00:15 33.73685 -112.61635 8290 ft 299 kts 63°
2026-04-29 00:15 33.74591 -112.59427 7927 ft 296 kts 63°
2026-04-29 00:15 33.75499 -112.57214 7563 ft 293 kts 63°
2026-04-29 00:15 33.76201 -112.54964 7180 ft 289 kts 83°
2026-04-29 00:16 33.76231 -112.52560 6857 ft 284 kts 90°
2026-04-29 00:16 33.76245 -112.50191 6518 ft 283 kts 90°
2026-04-29 00:16 33.76251 -112.47845 6192 ft 281 kts 90°
2026-04-29 00:16 33.76255 -112.45506 6011 ft 281 kts 90°
2026-04-29 00:17 33.76260 -112.43173 5991 ft 284 kts 90°
2026-04-29 00:17 33.76266 -112.40791 5988 ft 286 kts 90°
2026-04-29 00:17 33.76275 -112.38381 5985 ft 287 kts 90°
2026-04-29 00:17 33.76282 -112.35986 5986 ft 288 kts 90°
2026-04-29 00:18 33.76289 -112.33603 5986 ft 284 kts 90°
2026-04-29 00:18 33.76297 -112.31266 5986 ft 275 kts 90°
2026-04-29 00:18 33.76305 -112.29005 5987 ft 268 kts 90°
2026-04-29 00:18 33.76312 -112.26803 5988 ft 262 kts 90°
2026-04-29 00:19 33.76317 -112.24654 5989 ft 255 kts 90°
2026-04-29 00:19 33.76322 -112.22543 5989 ft 247 kts 90°
2026-04-29 00:19 33.76327 -112.20517 5987 ft 239 kts 90°
2026-04-29 00:19 33.76333 -112.18545 5988 ft 234 kts 90°
2026-04-29 00:20 33.76339 -112.16609 5988 ft 229 kts 90°
2026-04-29 00:20 33.76346 -112.14722 5987 ft 225 kts 90°
2026-04-29 00:20 33.76354 -112.12861 5991 ft 222 kts 90°
2026-04-29 00:20 33.76362 -112.11028 5990 ft 217 kts 90°
2026-04-29 00:21 33.76373 -112.09241 5985 ft 211 kts 90°
2026-04-29 00:21 33.76380 -112.07479 5989 ft 207 kts 90°
2026-04-29 00:21 33.76385 -112.05763 5992 ft 204 kts 90°
2026-04-29 00:21 33.76291 -112.04107 5933 ft 195 kts 101°
2026-04-29 00:22 33.75956 -112.02548 5698 ft 195 kts 109°
2026-04-29 00:22 33.75457 -112.01032 5458 ft 194 kts 116°
2026-04-29 00:22 33.74835 -111.99613 5243 ft 188 kts 120°
2026-04-29 00:22 33.74216 -111.98286 5112 ft 180 kts 121°
2026-04-29 00:23 33.73579 -111.97006 4896 ft 179 kts 123°
2026-04-29 00:23 33.72893 -111.95750 4649 ft 179 kts 127°
2026-04-29 00:23 33.72138 -111.94563 4424 ft 178 kts 130°
2026-04-29 00:23 33.71343 -111.93442 4190 ft 177 kts 133°
2026-04-29 00:24 33.70519 -111.92355 3948 ft 177 kts 135°
2026-04-29 00:24 33.69682 -111.91344 3709 ft 158 kts 137°
2026-04-29 00:24 33.68917 -111.90469 3456 ft 146 kts 138°
2026-04-29 00:24 33.68187 -111.89683 3233 ft 137 kts 140°
2026-04-29 00:25 33.67448 -111.88974 2953 ft 136 kts 146°
2026-04-29 00:25 33.66689 -111.88319 2712 ft 133 kts 148°
2026-04-29 00:25 33.65877 -111.87874 2469 ft 124 kts 175°
2026-04-29 00:25 33.65068 -111.88070 2258 ft 117 kts 209°
2026-04-29 00:26 33.64424 -111.88646 2047 ft 115 kts 221°
2026-04-29 00:26 33.63834 -111.89280 1819 ft 114 kts 222°
2026-04-29 00:26 33.63267 -111.89925 1614 ft 111 kts 223°
2026-04-29 00:26 33.62729 -111.90545 1489 ft 100 kts 224°
2026-04-29 00:27 33.62354 -111.90977 1477 ft 50 kts 225°
2026-04-29 00:27 33.62223 -111.91134 1471 ft 11 kts 243°
2026-04-29 00:27 33.62263 -111.91213 1471 ft 10 kts 306°
2026-04-29 00:27 33.62237 -111.91275 1469 ft 10 kts 223°
2026-04-29 00:28 33.62214 -111.91316 1468 ft 2 kts 283°
2026-04-29 00:28 33.62218 -111.91323 1468 ft 0 kts 314°
2026-04-29 00:28 33.62219 -111.91324 1468 ft 0 kts 313°